Weather History for Frankfurt / M-Flughafen, Germany

Change the Weather History Date:

Sunday, May 11, 2014

  Actual Average Record
Temperature  
Mean Temperature 53 °F -  
Max Temperature 58 °F 68 °F - ()
Min Temperature 48 °F 50 °F - ()
Degree Days  
Heating Degree Days 12    
Growing Degree Days 3 (Base 50)    
Moisture  
Dew Point 45 °F    
Average Humidity 73    
Maximum Humidity 94    
Minimum Humidity 49    
Precipitation  
Precipitation 0.20 in - - ()
Sea Level Pressure  
Sea Level Pressure 29.75 in    
Wind  
Wind Speed 12 mph ()    
Max Wind Speed 28 mph    
Max Gust Speed 40 mph    
Visibility 6.3 miles    
Events Rain , Thunderstorm    
T = Trace of Precipitation, MM = Missing Value Source: Averaged Metar Reports

Daily Weather History Graph

Daily Weather History Graph

Search for Another Location

Airport:

Trip Planner

Search our weather history database for the weather conditions in past years. The results will help you decide how hot, cold, wet, or windy it might be!

Date:

Astronomy

May. 11, 2014 Rise Set
Actual Time 5:45 AM CEST 8:59 PM CEST
Civil Twilight 5:07 AM CEST 9:38 PM CEST
Nautical Twilight 4:16 AM CEST 10:29 PM CEST
Astronomical Twilight 3:10 AM CEST 11:35 PM CEST
Moon 5:18 PM CEST (5/11) 4:04 AM CEST (5/11)
Length of Visible Light 16h 30m
Length of Day
15h 13m
Waxing Gibbous, 87% of the Moon is Illuminated
May 11
Waxing Gibbous
May 14
Full
May 21
Last Quarter
May 28
New
Jun 5
First Quarter

Hourly Weather History & Observations

Time (CEST) Temp. Dew Point Humidity Pressure Visibility Wind Dir Wind Speed Gust Speed Precip Events Conditions
12:00 AM 52 °F 47 °F 79% 29.75 in 22 mi WSW 6.7 mph - - Rain Light Rain Showers
12:20 AM 53.6 °F 48.2 °F 82% 29.74 in 6.2 mi SW 8.1 mph - N/A   Mostly Cloudy
12:50 AM 51.8 °F 48.2 °F 88% 29.74 in 6.2 mi SW 10.4 mph - N/A   Mostly Cloudy
1:00 AM 53 °F 48 °F 78% 29.76 in 22 mi SW 8.9 mph - -   Mostly Cloudy
1:20 AM 53.6 °F 48.2 °F 82% 29.74 in 6.2 mi SSW 10.4 mph - N/A   Mostly Cloudy
1:50 AM 53.6 °F 48.2 °F 82% 29.74 in 6.2 mi South 9.2 mph - N/A Rain Light Rain Showers
2:00 AM 53 °F 47 °F 74% 29.75 in 22 mi South 8.9 mph - - Rain Light Rain Showers
2:20 AM 51.8 °F 48.2 °F 88% 29.74 in 6.2 mi SSW 10.4 mph - N/A   Mostly Cloudy
2:50 AM 53.6 °F 48.2 °F 82% 29.74 in 6.2 mi SSW 11.5 mph - N/A   Mostly Cloudy
3:00 AM 53 °F 47 °F 73% 29.75 in 22 mi SSW 11.2 mph - -   Mostly Cloudy
3:20 AM 51.8 °F 46.4 °F 82% 29.74 in 6.2 mi SSW 12.7 mph - N/A   Mostly Cloudy
3:50 AM 51.8 °F 44.6 °F 76% 29.74 in 6.2 mi SSW 13.8 mph - N/A   Mostly Cloudy
4:00 AM 52 °F 44 °F 67% 29.75 in 22 mi SSW 13.4 mph - -   Partly Cloudy
4:20 AM 50.0 °F 44.6 °F 82% 29.74 in 6.2 mi SSW 10.4 mph - N/A   Mostly Cloudy
4:50 AM 50.0 °F 44.6 °F 82% 29.74 in 6.2 mi SSW 8.1 mph - N/A   Mostly Cloudy
5:20 AM 50.0 °F 46.4 °F 87% 29.74 in 6.2 mi SSW 9.2 mph - N/A   Mostly Cloudy
5:50 AM 51.8 °F 46.4 °F 82% 29.74 in 6.2 mi SSW 9.2 mph - N/A   Mostly Cloudy
6:00 AM 51 °F 46 °F 79% 29.75 in 25 mi SSW 8.9 mph - - Rain Light Rain Showers
6:20 AM 51.8 °F 44.6 °F 76% 29.74 in 6.2 mi SW 12.7 mph - N/A   Scattered Clouds
6:50 AM 51.8 °F 44.6 °F 76% 29.74 in 6.2 mi SW 10.4 mph - N/A   Scattered Clouds
7:00 AM 51 °F 45 °F 72% 29.76 in 25 mi SW 11.2 mph - -   Mostly Cloudy
7:20 AM 51.8 °F 44.6 °F 76% 29.74 in 6.2 mi SSW 13.8 mph - N/A   Mostly Cloudy
7:50 AM 51.8 °F 42.8 °F 71% 29.74 in 6.2 mi SW 16.1 mph - N/A   Mostly Cloudy
8:00 AM 52 °F 43 °F 64% 29.77 in 25 mi SW 15.7 mph - -   Partly Cloudy
8:20 AM 51.8 °F 42.8 °F 71% 29.74 in 6.2 mi SW 15.0 mph - N/A   Mostly Cloudy
8:50 AM 53.6 °F 42.8 °F 67% 29.74 in 6.2 mi SW 15.0 mph - N/A   Mostly Cloudy
9:00 AM 54 °F 44 °F 58% 29.76 in 25 mi SW 15.7 mph - -   Partly Cloudy
9:20 AM 53.6 °F 42.8 °F 67% 29.74 in 6.2 mi SW 13.8 mph - N/A   Mostly Cloudy
9:50 AM 51.8 °F 44.6 °F 76% 29.74 in 6.2 mi SSW 15.0 mph - N/A Rain Light Rain Showers
10:00 AM 53 °F 44 °F 62% 29.74 in 9 mi SSW 13.4 mph - - Rain Light Rain Showers
10:20 AM 50.0 °F 48.2 °F 94% 29.77 in 6.2 mi West 12.7 mph - N/A Rain Light Rain Showers
10:50 AM 50.0 °F 46.4 °F 87% 29.77 in 6.2 mi West 18.4 mph - N/A Rain Light Rain Showers
11:20 AM 48.2 °F 46.4 °F 93% 29.77 in 6.2 mi WSW 18.4 mph - N/A Rain Light Rain Showers
11:50 AM 53.6 °F 48.2 °F 82% 29.74 in 6.2 mi SW 16.1 mph - N/A   Mostly Cloudy
12:00 PM 52 °F 48 °F 81% 29.76 in 22 mi SW 15.7 mph - - Rain Light Rain Showers
12:20 PM 53.6 °F 46.4 °F 77% 29.74 in 6.2 mi SW 17.3 mph - N/A Rain Light Rain Showers
12:50 PM 55.4 °F 48.2 °F 77% 29.74 in 6.2 mi SW 17.3 mph - N/A   Mostly Cloudy
1:00 PM 55 °F 49 °F 76% 29.75 in 25 mi SW 17.9 mph - - Rain Light Rain Showers
1:20 PM 57.2 °F 48.2 °F 72% 29.74 in 6.2 mi WSW 20.7 mph - N/A   Mostly Cloudy
1:50 PM 57.2 °F 46.4 °F 67% 29.71 in 6.2 mi WSW 16.1 mph - N/A Rain Light Rain Showers
2:00 PM 56 °F 46 °F 59% 29.73 in 25 mi WSW 15.7 mph - - Rain Light Rain Showers
2:20 PM 57.2 °F 42.8 °F 59% 29.71 in 6.2 mi WSW 25.3 mph 40.3 mph N/A Rain Light Rain Showers
2:50 PM 57.2 °F 44.6 °F 63% 29.71 in 6.2 mi WSW 23.0 mph - N/A   Mostly Cloudy
3:00 PM 58 °F 44 °F 49% 29.73 in 25 mi WSW 22.4 mph - - Rain Light Rain Showers
3:20 PM 57.2 °F 44.6 °F 63% 29.71 in 6.2 mi WSW 17.3 mph - N/A Rain Light Rain Showers
3:50 PM 50.0 °F 44.6 °F 82% 29.74 in 6.2 mi SW 27.6 mph 39.1 mph N/A Rain , Thunderstorm Light Thunderstorms and Rain
4:00 PM 50 °F 44 °F 73% 29.76 in 28 mi SW 26.8 mph - - Rain , Thunderstorm Thunderstorms and Rain
4:20 PM 50.0 °F 44.6 °F 82% 29.74 in 6.2 mi SSW 13.8 mph - N/A Rain Light Rain Showers
4:50 PM 55.4 °F 44.6 °F 67% 29.74 in 6.2 mi SSW 18.4 mph - N/A   Scattered Clouds
5:20 PM 55.4 °F 46.4 °F 72% 29.74 in 6.2 mi SSW 17.3 mph - N/A   Partly Cloudy
5:50 PM 57.2 °F 42.8 °F 59% 29.71 in 6.2 mi SW 17.3 mph - N/A   Partly Cloudy
6:00 PM 57 °F 44 °F 52% 29.73 in 47 mi SW 17.9 mph - -   Scattered Clouds
6:20 PM 57.2 °F 42.8 °F 59% 29.71 in 6.2 mi SW 17.3 mph - N/A   Scattered Clouds
6:50 PM 57.2 °F 44.6 °F 63% 29.71 in 6.2 mi SW 15.0 mph - N/A   Mostly Cloudy
7:00 PM 57 °F 44 °F 51% 29.73 in 47 mi SW 15.7 mph - -   Partly Cloudy
7:20 PM 55.4 °F 41.0 °F 58% 29.74 in 6.2 mi SW 16.1 mph 27.6 mph N/A   Mostly Cloudy
7:50 PM 53.6 °F 42.8 °F 67% 29.74 in 6.2 mi SW 18.4 mph - N/A   Mostly Cloudy
8:00 PM 53 °F 43 °F 58% 29.75 in 25 mi SW 17.9 mph - - Rain Light Rain Showers
8:20 PM 53.6 °F 42.8 °F 67% 29.74 in 6.2 mi SW 12.7 mph - N/A   Mostly Cloudy
8:50 PM 53.6 °F 42.8 °F 67% 29.77 in 6.2 mi SW 13.8 mph - N/A   Mostly Cloudy
9:00 PM 53 °F 43 °F 59% 29.77 in 37 mi SW 13.4 mph - -   Partly Cloudy
9:20 PM 53.6 °F 42.8 °F 67% 29.77 in 6.2 mi WSW 12.7 mph - N/A   Mostly Cloudy
9:50 PM 51.8 °F 42.8 °F 71% 29.80 in 6.2 mi SSW 10.4 mph - N/A   Mostly Cloudy
10:00 PM 52 °F 42 °F 61% 29.80 in 37 mi SSW 11.2 mph - -   Partly Cloudy
10:20 PM 50.0 °F 42.8 °F 76% 29.80 in - SW 13.8 mph - N/A   Clear
10:50 PM 50.0 °F 42.8 °F 76% 29.80 in - SSW 12.7 mph - N/A   Clear
11:20 PM 50.0 °F 44.6 °F 82% 29.80 in - SSW 11.5 mph - N/A   Clear
11:50 PM 50.0 °F 44.6 °F 82% 29.83 in - SSW 12.7 mph - N/A   Clear